1 Minute Report
Date Time Wind Direction Wind Speed Wind Gust Wind Variable Altimeter Temperature Dewpoint Relative Humidity Visibility Ceiling Precip Present Weather Density Alt Wind Chill Heat Index
18/01/23 23:44 270 05 N/A N/A 30.27 36(F), 2(C) 28(F), -2(C) 75% 10 CLR N/A N/A N/A 32 F N/A 3470
18/01/23 23:43 270 04 N/A N/A 30.27 36(F), 2(C) 28(F), -2(C) 75% 10 CLR N/A N/A N/A 36 F N/A 3469
18/01/23 23:42 270 04 N/A N/A 30.27 36(F), 2(C) 28(F), -2(C) 75% 10 CLR N/A N/A N/A 36 F N/A 3468
18/01/23 23:41 270 04 N/A N/A 30.27 36(F), 2(C) 28(F), -2(C) 75% 10 CLR N/A N/A N/A 36 F N/A 3467
18/01/23 23:40 270 04 N/A N/A 30.26 36(F), 2(C) 28(F), -2(C) 75% 10 CLR N/A N/A N/A 36 F N/A 3466
18/01/23 23:39 270 04 N/A N/A 30.26 36(F), 2(C) 28(F), -2(C) 75% 10 CLR N/A N/A N/A 36 F N/A 3465
18/01/23 23:38 270 03 N/A N/A 30.26 36(F), 2(C) 28(F), -2(C) 75% 10 CLR N/A N/A N/A 36 F N/A 3464
18/01/23 23:37 270 04 N/A N/A 30.26 37(F), 3(C) 28(F), -2(C) 70% 10 CLR N/A N/A N/A 37 F N/A 3463
18/01/23 23:36 270 04 N/A N/A 30.26 37(F), 3(C) 28(F), -2(C) 70% 10 CLR N/A N/A N/A 37 F N/A 3462
18/01/23 23:35 270 04 N/A N/A 30.26 37(F), 3(C) 28(F), -2(C) 70% 10 CLR N/A N/A N/A 37 F N/A 3461
18/01/23 23:34 270 04 N/A N/A 30.26 37(F), 3(C) 28(F), -2(C) 70% 10 CLR N/A N/A N/A 37 F N/A 3460
18/01/23 23:33 270 04 N/A N/A 30.26 37(F), 3(C) 28(F), -2(C) 70% 10 CLR N/A N/A N/A 37 F N/A 3459
18/01/23 23:32 280 05 N/A N/A 30.26 37(F), 3(C) 28(F), -2(C) 70% 10 CLR N/A N/A N/A 33 F N/A 3458
18/01/23 23:31 280 05 N/A N/A 30.26 37(F), 3(C) 28(F), -2(C) 70% 10 CLR N/A N/A N/A 33 F N/A 3457
18/01/23 23:30 280 04 N/A N/A 30.26 37(F), 3(C) 28(F), -2(C) 70% 10 CLR N/A N/A N/A 37 F N/A 3456
18/01/23 23:29 280 04 N/A N/A 30.26 37(F), 3(C) 28(F), -2(C) 70% 10 CLR N/A N/A N/A 37 F N/A 3455
18/01/23 23:28 280 05 N/A N/A 30.26 37(F), 3(C) 28(F), -2(C) 70% 10 CLR N/A N/A N/A 33 F N/A 3454
18/01/23 23:27 280 05 N/A N/A 30.26 37(F), 3(C) 28(F), -2(C) 70% 10 CLR N/A N/A N/A 33 F N/A 3453
18/01/23 23:26 270 05 N/A N/A 30.26 37(F), 3(C) 28(F), -2(C) 70% 10 CLR N/A N/A N/A 33 F N/A 3452
18/01/23 23:25 280 05 N/A N/A 30.26 38(F), 3(C) 28(F), -2(C) 70% 10 CLR N/A N/A N/A 34 F N/A 3451
18/01/23 23:24 280 05 N/A N/A 30.26 38(F), 3(C) 28(F), -2(C) 70% 10 CLR N/A N/A N/A 34 F N/A 3450
18/01/23 23:23 270 06 N/A N/A 30.26 38(F), 3(C) 28(F), -2(C) 70% 10 CLR N/A N/A N/A 33 F N/A 3449
18/01/23 23:22 270 06 N/A N/A 30.26 38(F), 3(C) 28(F), -2(C) 70% 10 CLR N/A N/A N/A 33 F N/A 3448
18/01/23 23:21 270 06 N/A N/A 30.26 38(F), 3(C) 28(F), -2(C) 70% 10 CLR N/A N/A N/A 33 F N/A 3447
18/01/23 23:20 270 06 N/A N/A 30.26 38(F), 3(C) 29(F), -2(C) 70% 10 CLR N/A N/A N/A 33 F N/A 3446
18/01/23 23:19 270 06 N/A N/A 30.26 38(F), 3(C) 29(F), -2(C) 70% 10 CLR N/A N/A N/A 33 F N/A 3445
18/01/23 23:18 270 07 N/A N/A 30.26 38(F), 3(C) 29(F), -2(C) 70% 10 CLR N/A N/A N/A 33 F N/A 3444
18/01/23 23:17 270 06 N/A N/A 30.26 38(F), 3(C) 29(F), -2(C) 70% 10 CLR N/A N/A N/A 33 F N/A 3443
18/01/23 23:16 270 06 N/A N/A 30.26 38(F), 3(C) 28(F), -2(C) 70% 10 CLR N/A N/A N/A 33 F N/A 3442
18/01/23 23:15 270 06 N/A N/A 30.26 38(F), 3(C) 28(F), -2(C) 70% 10 CLR N/A N/A N/A 33 F N/A 3441
18/01/23 23:14 270 06 N/A N/A 30.26 38(F), 3(C) 28(F), -2(C) 70% 10 CLR N/A N/A N/A 33 F N/A 3440
18/01/23 23:13 270 06 N/A N/A 30.26 38(F), 3(C) 28(F), -2(C) 70% 10 CLR N/A N/A N/A 33 F N/A 3439
18/01/23 23:12 280 06 N/A N/A 30.26 38(F), 3(C) 28(F), -2(C) 70% 10 CLR N/A N/A N/A 33 F N/A 3438
18/01/23 23:11 280 07 N/A N/A 30.26 38(F), 3(C) 28(F), -2(C) 70% 10 CLR N/A N/A N/A 33 F N/A 3437
18/01/23 23:10 270 08 N/A N/A 30.26 39(F), 4(C) 29(F), -2(C) 65% 10 CLR N/A N/A N/A 33 F N/A 3436
18/01/23 23:09 270 08 N/A N/A 30.26 39(F), 4(C) 29(F), -2(C) 65% 10 CLR N/A N/A N/A 33 F N/A 3435
18/01/23 23:08 270 07 N/A N/A 30.26 39(F), 4(C) 29(F), -2(C) 65% 10 CLR N/A N/A N/A 34 F N/A 3434
18/01/23 23:07 270 07 N/A N/A 30.26 39(F), 4(C) 28(F), -2(C) 65% 10 CLR N/A N/A N/A 34 F N/A 3433
18/01/23 23:06 270 08 N/A N/A 30.26 39(F), 4(C) 28(F), -2(C) 65% 10 CLR N/A N/A N/A 33 F N/A 3432
18/01/23 23:05 270 07 N/A N/A 30.26 39(F), 4(C) 28(F), -2(C) 65% 10 CLR N/A N/A N/A 34 F N/A 3431
18/01/23 23:04 270 07 N/A N/A 30.26 39(F), 4(C) 28(F), -2(C) 65% 10 CLR N/A N/A N/A 34 F N/A 3430
18/01/23 23:03 280 08 N/A N/A 30.26 39(F), 4(C) 28(F), -2(C) 65% 10 CLR N/A N/A N/A 33 F N/A 3429
18/01/23 23:02 280 08 N/A N/A 30.26 39(F), 4(C) 28(F), -2(C) 65% 10 CLR N/A N/A N/A 33 F N/A 3428
18/01/23 23:01 280 08 N/A N/A 30.26 39(F), 4(C) 28(F), -2(C) 65% 10 CLR N/A N/A N/A 33 F N/A 3427
18/01/23 23:00 280 09 N/A N/A 30.25 39(F), 4(C) 29(F), -2(C) 65% 10 CLR N/A N/A N/A 33 F N/A 3426
18/01/23 22:59 280 09 N/A N/A 30.25 39(F), 4(C) 29(F), -2(C) 65% 10 CLR N/A N/A N/A 33 F N/A 3425
18/01/23 22:58 280 09 N/A N/A 30.25 39(F), 4(C) 29(F), -2(C) 65% 10 CLR N/A N/A N/A 33 F N/A 3424
18/01/23 22:57 280 08 N/A N/A 30.25 39(F), 4(C) 29(F), -2(C) 65% 10 CLR N/A N/A N/A 33 F N/A 3423
18/01/23 22:56 280 07 N/A N/A 30.25 39(F), 4(C) 29(F), -2(C) 65% 10 CLR N/A N/A N/A 34 F N/A 3422
18/01/23 22:55 290 08 N/A N/A 30.25 39(F), 4(C) 29(F), -2(C) 65% 10 CLR N/A N/A N/A 33 F N/A 3421
18/01/23 22:54 290 08 N/A N/A 30.25 39(F), 4(C) 29(F), -2(C) 65% 10 CLR N/A N/A N/A 33 F N/A 3420
18/01/23 22:53 290 07 N/A N/A 30.25 39(F), 4(C) 29(F), -2(C) 65% 10 CLR N/A N/A N/A 34 F N/A 3419
18/01/23 22:52 290 08 N/A N/A 30.25 39(F), 4(C) 28(F), -2(C) 65% 10 CLR N/A N/A N/A 33 F N/A 3418
18/01/23 22:51 290 08 N/A N/A 30.25 39(F), 4(C) 28(F), -2(C) 65% 10 CLR N/A N/A N/A 33 F N/A 3417
18/01/23 22:50 300 08 N/A N/A 30.25 39(F), 4(C) 28(F), -2(C) 65% 10 CLR N/A N/A N/A 33 F N/A 3416
18/01/23 22:49 300 09 N/A N/A 30.25 39(F), 4(C) 28(F), -2(C) 65% 10 CLR N/A N/A N/A 33 F N/A 3415
18/01/23 22:48 290 09 N/A N/A 30.25 39(F), 4(C) 29(F), -2(C) 65% 10 CLR N/A N/A N/A 33 F N/A 3414
18/01/23 22:47 290 09 N/A N/A 30.25 39(F), 4(C) 29(F), -2(C) 65% 10 CLR N/A N/A N/A 33 F N/A 3413
18/01/23 22:46 290 10 N/A N/A 30.25 39(F), 4(C) 29(F), -2(C) 65% 10 CLR N/A N/A N/A 32 F N/A 3412
18/01/23 22:45 290 10 N/A N/A 30.24 39(F), 4(C) 29(F), -2(C) 65% 10 CLR N/A N/A N/A 32 F N/A 3411
18/01/23 22:44 290 10 N/A N/A 30.25 40(F), 4(C) 29(F), -2(C) 65% 10 CLR N/A N/A N/A 34 F N/A 3410
18/01/23 22:43 290 10 N/A N/A 30.24 40(F), 4(C) 29(F), -2(C) 65% 10 CLR N/A N/A N/A 34 F N/A 3409
18/01/23 22:42 280 10 N/A N/A 30.24 40(F), 4(C) 29(F), -2(C) 65% 10 CLR N/A N/A N/A 34 F N/A 3408
18/01/23 22:41 280 09 N/A N/A 30.24 40(F), 4(C) 29(F), -2(C) 65% 10 CLR N/A N/A N/A 34 F N/A 3407
18/01/23 22:40 280 09 N/A N/A 30.24 40(F), 4(C) 29(F), -2(C) 65% 10 CLR N/A N/A N/A 34 F N/A 3406
18/01/23 22:39 280 08 N/A N/A 30.24 40(F), 4(C) 29(F), -2(C) 65% 10 CLR N/A N/A N/A 35 F N/A 3405
18/01/23 22:38 280 08 N/A N/A 30.24 40(F), 4(C) 29(F), -2(C) 65% 10 CLR N/A N/A N/A 35 F N/A 3404
18/01/23 22:37 280 08 N/A N/A 30.24 40(F), 4(C) 29(F), -2(C) 65% 10 CLR N/A N/A N/A 35 F N/A 3403
18/01/23 22:36 280 06 N/A N/A 30.24 40(F), 4(C) 29(F), -2(C) 65% 10 CLR N/A N/A N/A 36 F N/A 3402
18/01/23 22:35 290 06 N/A N/A 30.24 40(F), 4(C) 29(F), -2(C) 65% 10 CLR N/A N/A N/A 36 F N/A 3401
18/01/23 22:34 290 07 N/A N/A 30.24 40(F), 4(C) 29(F), -2(C) 65% 10 CLR N/A N/A N/A 35 F N/A 3400
18/01/23 22:33 290 07 N/A N/A 30.24 40(F), 4(C) 29(F), -2(C) 65% 10 CLR N/A N/A N/A 35 F N/A 3399
18/01/23 22:32 290 08 N/A N/A 30.24 40(F), 4(C) 29(F), -2(C) 65% 10 CLR N/A N/A N/A 35 F N/A 3398
18/01/23 22:31 290 09 N/A N/A 30.24 40(F), 4(C) 29(F), -2(C) 65% 10 CLR N/A N/A N/A 34 F N/A 3397
18/01/23 22:30 290 09 N/A N/A 30.24 40(F), 4(C) 29(F), -2(C) 65% 10 CLR N/A N/A N/A 34 F N/A 3396
18/01/23 22:29 290 09 N/A N/A 30.24 40(F), 4(C) 29(F), -2(C) 65% 10 CLR N/A N/A N/A 34 F N/A 3395
18/01/23 22:28 290 09 N/A N/A 30.24 40(F), 4(C) 29(F), -2(C) 65% 10 CLR N/A N/A N/A 34 F N/A 3394
18/01/23 22:27 290 09 N/A N/A 30.24 40(F), 4(C) 29(F), -2(C) 65% 10 CLR N/A N/A N/A 34 F N/A 3393
18/01/23 22:26 290 09 N/A N/A 30.24 40(F), 4(C) 29(F), -2(C) 65% 10 CLR N/A N/A N/A 34 F N/A 3392
18/01/23 22:25 290 09 N/A N/A 30.24 40(F), 4(C) 29(F), -2(C) 65% 10 CLR N/A N/A N/A 34 F N/A 3391
18/01/23 22:24 290 09 N/A N/A 30.24 40(F), 4(C) 29(F), -2(C) 65% 10 CLR N/A N/A N/A 34 F N/A 3390
18/01/23 22:23 280 09 N/A N/A 30.24 40(F), 4(C) 29(F), -2(C) 65% 10 CLR N/A N/A N/A 34 F N/A 3389
18/01/23 22:22 280 09 N/A N/A 30.24 40(F), 4(C) 29(F), -2(C) 65% 10 CLR N/A N/A N/A 34 F N/A 3388
18/01/23 22:21 280 08 N/A N/A 30.24 40(F), 4(C) 29(F), -2(C) 65% 10 CLR N/A N/A N/A 35 F N/A 3387
18/01/23 22:20 280 07 N/A N/A 30.24 40(F), 4(C) 29(F), -2(C) 65% 10 CLR N/A N/A N/A 35 F N/A 3386
18/01/23 22:19 270 08 N/A N/A 30.24 40(F), 4(C) 29(F), -2(C) 65% 10 CLR N/A N/A N/A 35 F N/A 3385
18/01/23 22:18 280 08 N/A N/A 30.24 40(F), 4(C) 29(F), -2(C) 65% 10 CLR N/A N/A N/A 35 F N/A 3384
18/01/23 22:17 290 07 N/A N/A 30.24 40(F), 4(C) 29(F), -2(C) 65% 10 CLR N/A N/A N/A 35 F N/A 3383
18/01/23 22:16 290 08 N/A N/A 30.24 40(F), 4(C) 29(F), -2(C) 65% 10 CLR N/A N/A N/A 35 F N/A 3382
18/01/23 22:15 290 09 N/A N/A 30.24 40(F), 4(C) 29(F), -2(C) 65% 10 CLR N/A N/A N/A 34 F N/A 3381
18/01/23 22:14 290 08 N/A N/A 30.24 40(F), 4(C) 29(F), -2(C) 65% 10 CLR N/A N/A N/A 35 F N/A 3380
18/01/23 22:13 290 08 N/A N/A 30.24 40(F), 4(C) 29(F), -2(C) 65% 10 CLR N/A N/A N/A 35 F N/A 3379
18/01/23 22:12 290 09 N/A N/A 30.24 40(F), 4(C) 29(F), -2(C) 65% 10 CLR N/A N/A N/A 34 F N/A 3378
18/01/23 22:11 290 09 N/A N/A 30.24 40(F), 4(C) 29(F), -2(C) 65% 10 CLR N/A N/A N/A 34 F N/A 3377
18/01/23 22:10 290 08 N/A N/A 30.24 40(F), 4(C) 29(F), -2(C) 65% 10 CLR N/A N/A N/A 35 F N/A 3376
18/01/23 22:09 290 08 N/A N/A 30.24 40(F), 4(C) 29(F), -2(C) 65% 10 CLR N/A N/A N/A 35 F N/A 3375
18/01/23 22:08 290 09 N/A N/A 30.24 40(F), 4(C) 29(F), -2(C) 65% 10 CLR N/A N/A N/A 34 F N/A 3374
18/01/23 22:07 290 10 N/A N/A 30.24 40(F), 4(C) 29(F), -2(C) 65% 10 CLR N/A N/A N/A 34 F N/A 3373
18/01/23 22:06 290 10 N/A N/A 30.24 40(F), 4(C) 29(F), -2(C) 65% 10 CLR N/A N/A N/A 34 F N/A 3372
18/01/23 22:05 290 10 N/A N/A 30.24 40(F), 4(C) 29(F), -2(C) 65% 10 CLR N/A N/A N/A 34 F N/A 3371
18/01/23 22:04 290 09 N/A N/A 30.24 40(F), 4(C) 29(F), -2(C) 65% 10 CLR N/A N/A N/A 34 F N/A 3370
18/01/23 22:03 290 10 N/A N/A 30.24 40(F), 4(C) 29(F), -2(C) 65% 10 CLR N/A N/A N/A 34 F N/A 3369
18/01/23 22:02 290 10 N/A N/A 30.24 40(F), 4(C) 29(F), -2(C) 65% 10 CLR N/A N/A N/A 34 F N/A 3368
18/01/23 22:01 290 10 N/A N/A 30.24 40(F), 4(C) 29(F), -2(C) 65% 10 CLR N/A N/A N/A 34 F N/A 3367
18/01/23 22:00 290 10 N/A N/A 30.24 40(F), 4(C) 29(F), -2(C) 65% 10 CLR N/A N/A N/A 34 F N/A 3366
18/01/23 21:59 290 11 N/A N/A 30.24 40(F), 4(C) 29(F), -2(C) 65% 10 CLR N/A N/A N/A 33 F N/A 3365
18/01/23 21:58 290 10 N/A N/A 30.24 40(F), 4(C) 29(F), -2(C) 65% 10 CLR N/A N/A N/A 34 F N/A 3364
18/01/23 21:57 290 10 N/A N/A 30.24 40(F), 4(C) 29(F), -2(C) 65% 10 CLR N/A N/A N/A 34 F N/A 3363
18/01/23 21:56 290 11 N/A N/A 30.24 40(F), 4(C) 29(F), -2(C) 65% 10 CLR N/A N/A N/A 33 F N/A 3362
18/01/23 21:55 290 11 N/A N/A 30.24 40(F), 4(C) 29(F), -2(C) 65% 10 CLR N/A N/A N/A 33 F N/A 3361
18/01/23 21:54 290 10 N/A N/A 30.24 40(F), 4(C) 29(F), -2(C) 65% 10 CLR N/A N/A N/A 34 F N/A 3360
18/01/23 21:53 280 09 N/A N/A 30.24 40(F), 4(C) 29(F), -2(C) 65% 10 CLR N/A N/A N/A 34 F N/A 3359
18/01/23 21:52 290 10 N/A N/A 30.24 40(F), 4(C) 29(F), -2(C) 65% 10 CLR N/A N/A N/A 34 F N/A 3358
18/01/23 21:51 290 10 N/A N/A 30.24 40(F), 4(C) 29(F), -2(C) 65% 10 CLR N/A N/A N/A 34 F N/A 3357
18/01/23 21:50 280 09 N/A N/A 30.24 40(F), 4(C) 29(F), -2(C) 65% 10 CLR N/A N/A N/A 34 F N/A 3356
18/01/23 21:49 280 09 N/A N/A 30.24 40(F), 4(C) 29(F), -2(C) 65% 10 CLR N/A N/A N/A 34 F N/A 3355
18/01/23 21:48 280 10 N/A N/A 30.24 40(F), 4(C) 29(F), -2(C) 65% 10 CLR N/A N/A N/A 34 F N/A 3354
18/01/23 21:47 280 11 N/A N/A 30.24 40(F), 4(C) 29(F), -2(C) 65% 10 CLR N/A N/A N/A 33 F N/A 3353
18/01/23 21:46 290 11 N/A N/A 30.24 40(F), 4(C) 29(F), -2(C) 65% 10 CLR N/A N/A N/A 33 F N/A 3352
18/01/23 21:45 290 10 N/A N/A 30.24 40(F), 4(C) 28(F), -2(C) 65% 10 CLR N/A N/A N/A 34 F N/A 3351
18/01/23 21:44 290 10 N/A N/A 30.24 40(F), 4(C) 29(F), -2(C) 65% 10 CLR N/A N/A N/A 34 F N/A 3350